| time (UTC) | temp C | wind direction | speed KPH | gust KPH | rain 1hr cm | rain 24hr cm | rain mn cm | humidity % | barometer mb |
| 20260503053512 | 23 | 90 | 12.9 | 0.0 | 0.00 | 0.00 | 0.00 | 87 | 1016.0 |
| 20260503052511 | 23 | 90 | 12.9 | 0.0 | 0.00 | 0.00 | 0.00 | 87 | 1016.0 |
| 20260503051509 | 23 | 90 | 12.9 | 0.0 | 0.00 | 0.00 | 0.00 | 87 | 1016.0 |
| 20260503050507 | 23 | 90 | 12.9 | 0.0 | 0.00 | 0.00 | 0.00 | 87 | 1016.0 |
| 20260503045505 | 23 | 90 | 12.9 | 0.0 | 0.00 | 0.00 | 0.00 | 87 | 1016.0 |
| 20260503044504 | 23 | 90 | 12.9 | 0.0 | 0.00 | 0.00 | 0.00 | 87 | 1016.0 |
| 20260503043503 | 23 | 90 | 12.9 | 0.0 | 0.00 | 0.00 | 0.00 | 86 | 1016.0 |
| 20260503042501 | 23 | 90 | 12.9 | 0.0 | 0.00 | 0.00 | 0.00 | 85 | 1016.0 |
| 20260503041500 | 24 | 90 | 12.9 | 0.0 | 0.00 | 0.00 | 0.00 | 84 | 1016.0 |
| 20260503040459 | 25 | 90 | 14.5 | 0.0 | 0.00 | 0.00 | 0.00 | 82 | 1016.0 |
| 20260503035458 | 25 | 90 | 14.5 | 0.0 | 0.00 | 0.00 | 0.00 | 82 | 1016.0 |
| 20260503034456 | 25 | 90 | 14.5 | 0.0 | 0.00 | 0.00 | 0.00 | 82 | 1016.0 |
| 20260503033455 | 25 | 90 | 14.5 | 0.0 | 0.00 | 0.00 | 0.00 | 82 | 1016.0 |
| 20260503032453 | 25 | 90 | 14.5 | 0.0 | 0.00 | 0.00 | 0.00 | 82 | 1016.0 |
| 20260503031452 | 25 | 90 | 14.5 | 0.0 | 0.00 | 0.00 | 0.00 | 82 | 1016.0 |
| 20260503030450 | 25 | 90 | 14.5 | 0.0 | 0.00 | 0.00 | 0.00 | 82 | 1016.0 |
| 20260503025448 | 25 | 80 | 12.9 | 0.0 | 0.00 | 0.00 | 0.00 | 82 | 1016.0 |
| 20260503024446 | 25 | 80 | 12.9 | 0.0 | 0.00 | 0.00 | 0.00 | 82 | 1016.0 |
| 20260503023445 | 25 | 80 | 12.9 | 0.0 | 0.00 | 0.00 | 0.00 | 82 | 1016.0 |
| 20260503022444 | 25 | 80 | 12.9 | 0.0 | 0.00 | 0.00 | 0.00 | 82 | 1016.0 |
| 20260503021442 | 25 | 80 | 12.9 | 0.0 | 0.00 | 0.00 | 0.00 | 81 | 1016.0 |
| 20260503020441 | 25 | 80 | 12.9 | 0.0 | 0.00 | 0.00 | 0.00 | 80 | 1016.0 |
| 20260503015439 | 26 | 80 | 14.5 | 0.0 | 0.00 | 0.00 | 0.00 | 78 | 1016.0 |
| 20260503014438 | 26 | 80 | 14.5 | 0.0 | 0.00 | 0.00 | 0.00 | 78 | 1016.0 |
| 20260503013437 | 26 | 80 | 14.5 | 0.0 | 0.00 | 0.00 | 0.00 | 78 | 1016.0 |
| 20260503012435 | 26 | 80 | 14.5 | 0.0 | 0.00 | 0.00 | 0.00 | 78 | 1015.0 |
| 20260503011433 | 26 | 80 | 14.5 | 0.0 | 0.00 | 0.00 | 0.00 | 78 | 1015.0 |
| 20260503010431 | 27 | 90 | 14.5 | 0.0 | 0.00 | 0.00 | 0.00 | 74 | 1015.0 |
| 20260503005430 | 27 | 90 | 14.5 | 0.0 | 0.00 | 0.00 | 0.00 | 74 | 1015.0 |
| 20260503004429 | 27 | 90 | 14.5 | 0.0 | 0.00 | 0.00 | 0.00 | 74 | 1015.0 |
| 20260503003427 | 27 | 90 | 14.5 | 0.0 | 0.00 | 0.00 | 0.00 | 74 | 1015.0 |
| 20260503002426 | 27 | 90 | 14.5 | 0.0 | 0.00 | 0.00 | 0.00 | 74 | 1014.0 |
| 20260503001425 | 27 | 90 | 14.5 | 0.0 | 0.00 | 0.00 | 0.00 | 74 | 1014.0 |
| 20260503000415 | 28 | 100 | 14.5 | 0.0 | 0.00 | 0.00 | 0.00 | 74 | 1014.0 |
| 20260502235410 | 28 | 100 | 14.5 | 0.0 | 0.00 | 0.00 | 0.00 | 74 | 1014.0 |
| 20260502234409 | 28 | 100 | 14.5 | 0.0 | 0.00 | 0.00 | 0.00 | 74 | 1014.0 |
| 20260502233407 | 28 | 100 | 14.5 | 0.0 | 0.00 | 0.00 | 0.00 | 74 | 1014.0 |
| 20260502232406 | 28 | 100 | 14.5 | 0.0 | 0.00 | 0.00 | 0.00 | 74 | 1013.0 |
| 20260502231405 | 28 | 100 | 14.5 | 0.0 | 0.00 | 0.00 | 0.00 | 74 | 1013.0 |
| 20260502230403 | 28 | 100 | 14.5 | 0.0 | 0.00 | 0.00 | 0.00 | 74 | 1013.0 |
| 20260502225402 | 30 | 100 | 16.1 | 0.0 | 0.00 | 0.00 | 0.00 | 70 | 1013.0 |
| 20260502224401 | 30 | 100 | 16.1 | 0.0 | 0.00 | 0.00 | 0.00 | 70 | 1013.0 |
| 20260502223359 | 30 | 100 | 16.1 | 0.0 | 0.00 | 0.00 | 0.00 | 70 | 1013.0 |
| 20260502222358 | 30 | 100 | 16.1 | 0.0 | 0.00 | 0.00 | 0.00 | 70 | 1013.0 |
| 20260502221357 | 30 | 100 | 16.1 | 0.0 | 0.00 | 0.00 | 0.00 | 70 | 1013.0 |
| 20260502220355 | 30 | 100 | 16.1 | 0.0 | 0.00 | 0.00 | 0.00 | 70 | 1013.0 |
| 20260502215353 | 31 | 100 | 19.3 | 0.0 | 0.00 | 0.00 | 0.00 | 66 | 1013.0 |
| 20260502214352 | 31 | 100 | 19.3 | 0.0 | 0.00 | 0.00 | 0.00 | 66 | 1013.0 |
| 20260502213351 | 30 | 100 | 19.3 | 0.0 | 0.00 | 0.00 | 0.00 | 65 | 1013.0 |
| 20260502212349 | 30 | 100 | 19.3 | 0.0 | 0.00 | 0.00 | 0.00 | 65 | 1012.0 |
| 20260502211348 | 30 | 100 | 19.3 | 0.0 | 0.00 | 0.00 | 0.00 | 65 | 1012.0 |
| 20260502210347 | 30 | 100 | 19.3 | 0.0 | 0.00 | 0.00 | 0.00 | 64 | 1012.0 |
| 20260502205345 | 30 | 90 | 17.7 | 0.0 | 0.00 | 0.00 | 0.00 | 63 | 1012.0 |
| 20260502204344 | 30 | 90 | 17.7 | 0.0 | 0.00 | 0.00 | 0.00 | 63 | 1012.0 |
| 20260502203343 | 30 | 90 | 17.7 | 0.0 | 0.00 | 0.00 | 0.00 | 63 | 1012.0 |
| 20260502202341 | 30 | 90 | 17.7 | 0.0 | 0.00 | 0.00 | 0.00 | 63 | 1012.0 |
| 20260502201339 | 30 | 90 | 17.7 | 0.0 | 0.00 | 0.00 | 0.00 | 63 | 1012.0 |
| 20260502200338 | 30 | 90 | 17.7 | 0.0 | 0.00 | 0.00 | 0.00 | 63 | 1012.0 |
| 20260502195337 | 30 | 90 | 17.7 | 0.0 | 0.00 | 0.00 | 0.00 | 63 | 1012.0 |
| 20260502194335 | 30 | 90 | 17.7 | 0.0 | 0.00 | 0.00 | 0.00 | 63 | 1012.0 |
| 20260502193334 | 30 | 90 | 17.7 | 0.0 | 0.00 | 0.00 | 0.00 | 63 | 1012.0 |
| 20260502192333 | 30 | 90 | 17.7 | 0.0 | 0.00 | 0.00 | 0.00 | 63 | 1013.0 |
| 20260502191331 | 30 | 90 | 17.7 | 0.0 | 0.00 | 0.00 | 0.00 | 63 | 1013.0 |
| 20260502190330 | 30 | 100 | 17.7 | 0.0 | 0.00 | 0.00 | 0.00 | 63 | 1013.0 |
| 20260502185328 | 30 | 100 | 17.7 | 0.0 | 0.00 | 0.00 | 0.00 | 63 | 1013.0 |
| 20260502184327 | 30 | 100 | 17.7 | 0.0 | 0.00 | 0.00 | 0.00 | 63 | 1013.0 |
| 20260502183326 | 30 | 100 | 17.7 | 0.0 | 0.00 | 0.00 | 0.00 | 63 | 1013.0 |
| 20260502182325 | 30 | 100 | 17.7 | 0.0 | 0.00 | 0.00 | 0.00 | 64 | 1014.0 |
| 20260502181323 | 30 | 100 | 17.7 | 0.0 | 0.00 | 0.00 | 0.00 | 65 | 1014.0 |
| 20260502180322 | 29 | 100 | 17.7 | 0.0 | 0.00 | 0.00 | 0.00 | 67 | 1014.0 |
| 20260502170313 | 29 | 100 | 14.5 | 0.0 | 0.00 | 0.00 | 0.00 | 67 | 1015.0 |
| 20260502164310 | 29 | 100 | 14.5 | 0.0 | 0.00 | 0.00 | 0.00 | 69 | 1015.0 |
| 20260502163308 | 29 | 100 | 14.5 | 0.0 | 0.00 | 0.00 | 0.00 | 70 | 1015.0 |
| 20260502162307 | 28 | 100 | 14.5 | 0.0 | 0.00 | 0.00 | 0.00 | 72 | 1016.0 |
| 20260502161306 | 28 | 100 | 14.5 | 0.0 | 0.00 | 0.00 | 0.00 | 75 | 1016.0 |
| 20260502160304 | 27 | 100 | 14.5 | 0.0 | 0.00 | 0.00 | 0.00 | 80 | 1016.0 |
| 20260502152258 | 27 | 100 | 14.5 | 0.0 | 0.00 | 0.00 | 0.00 | 82 | 1016.0 |
| 20260502151257 | 27 | 100 | 14.5 | 0.0 | 0.00 | 0.00 | 0.00 | 83 | 1016.0 |
| 20260502150256 | 26 | 90 | 14.5 | 0.0 | 0.00 | 0.00 | 0.00 | 85 | 1016.0 |
| 20260502130239 | 21 | 90 | 9.7 | 0.0 | 0.00 | 0.00 | 0.00 | 95 | 1016.0 |
| 20260502123235 | 21 | 90 | 9.7 | 0.0 | 0.00 | 0.00 | 0.00 | 95 | 1016.0 |
| 20260502122234 | 21 | 90 | 9.7 | 0.0 | 0.00 | 0.00 | 0.00 | 95 | 1015.0 |
| 20260502121233 | 21 | 90 | 9.7 | 0.0 | 0.00 | 0.00 | 0.00 | 95 | 1015.0 |
| 20260502120231 | 21 | 70 | 8.0 | 0.0 | 0.00 | 0.00 | 0.00 | 95 | 1015.0 |
| 20260502115230 | 21 | 70 | 8.0 | 0.0 | 0.00 | 0.00 | 0.00 | 95 | 1015.0 |
| 20260502114229 | 21 | 70 | 8.0 | 0.0 | 0.00 | 0.00 | 0.00 | 95 | 1015.0 |
| 20260502113227 | 21 | 70 | 8.0 | 0.0 | 0.00 | 0.00 | 0.00 | 95 | 1015.0 |
| 20260502112225 | 21 | 70 | 8.0 | 0.0 | 0.00 | 0.00 | 0.00 | 95 | 1015.0 |
| 20260502111224 | 21 | 70 | 8.0 | 0.0 | 0.00 | 0.00 | 0.00 | 96 | 1015.0 |
| 20260502110222 | 21 | 70 | 8.0 | 0.0 | 0.00 | 0.00 | 0.00 | 97 | 1015.0 |
| 20260502105221 | 21 | 70 | 8.0 | 0.0 | 0.00 | 0.00 | 0.00 | 99 | 1015.0 |
| 20260502104220 | 21 | 70 | 8.0 | 0.0 | 0.00 | 0.00 | 0.00 | 98 | 1015.0 |
| 20260502103218 | 21 | 70 | 8.0 | 0.0 | 0.00 | 0.00 | 0.00 | 97 | 1015.0 |
| 20260502102217 | 21 | 70 | 8.0 | 0.0 | 0.00 | 0.00 | 0.00 | 96 | 1015.0 |
| 20260502101216 | 22 | 70 | 8.0 | 0.0 | 0.00 | 0.00 | 0.00 | 93 | 1015.0 |
| 20260502100214 | 22 | 70 | 8.0 | 0.0 | 0.00 | 0.00 | 0.00 | 93 | 1015.0 |
| 20260502091207 | 22 | 70 | 8.0 | 0.0 | 0.00 | 0.00 | 0.00 | 93 | 1014.0 |
| 20260502090204 | 22 | 70 | 8.0 | 0.0 | 0.00 | 0.00 | 0.00 | 93 | 1014.0 |
| 20260502071148 | 22 | 90 | 8.0 | 0.0 | 0.00 | 0.00 | 0.00 | 93 | 1014.0 |
| 20260502070145 | 23 | 90 | 9.7 | 0.0 | 0.00 | 0.00 | 0.00 | 93 | 1014.0 |
| 20260502065143 | 23 | 90 | 9.7 | 0.0 | 0.00 | 0.00 | 0.00 | 93 | 1014.0 |
| 20260502064142 | 23 | 90 | 9.7 | 0.0 | 0.00 | 0.00 | 0.00 | 93 | 1014.0 |
| 20260502063141 | 23 | 90 | 9.7 | 0.0 | 0.00 | 0.00 | 0.00 | 93 | 1014.0 |
| 20260502062139 | 23 | 90 | 9.7 | 0.0 | 0.00 | 0.00 | 0.00 | 92 | 1014.0 |
| 20260502061138 | 23 | 90 | 9.7 | 0.0 | 0.00 | 0.00 | 0.00 | 91 | 1014.0 |
| 20260502060136 | 23 | 100 | 8.0 | 0.0 | 0.00 | 0.00 | 0.00 | 89 | 1014.0 |
| 20260502055133 | 23 | 100 | 8.0 | 0.0 | 0.00 | 0.00 | 0.00 | 89 | 1014.0 |
| 20260502054130 | 23 | 100 | 8.0 | 0.0 | 0.00 | 0.00 | 0.00 | 89 | 1014.0 |